Flag for Germany Weather past 2 weeks in Haltern am See, North Rhine-Westphalia, Germany

Now
52 °F

Fog.


Feels Like: 52 °F
Forecast: 53 / 72 °F
Wind: 1 mph from West

Location: Muenster / Osnabrueck

Current Time: Sep 2, 2014 at 5:28:58 AM

Latest Report: Sep 2, 2014 at 5:00 AM


Visibility: 1 mi

Pressure: 30.15 "Hg

Humidity: 98%

Dew point: 52 °F

Location of Haltern am SeeLocation

Historic Weather in Haltern am See — Graph

°F

Haltern am See temperature yesterday

Maximum temperature yesterday: 66 °F (at 6:00 PM)
Minimum temperature yesterday: 49 °F (at 4:00 AM)
Average temperature yesterday: 58 °F

Past Weeks' High & Low Weather Summary

 TemperatureHumidityPressure
High74 °F (Aug 28, 5:00 PM)100% (Aug 25, 9:00 AM)30.15 "Hg (Aug 25, 9:00 AM)
Low41 °F (Aug 25, 5:00 AM)44% (Aug 27, 7:00 PM)29.62 "Hg (Aug 18, 7:00 AM)
Average57 °F84%29.94 "Hg
* Reported Aug 18 4:00 AM — Sep 2 4:00 AM, Haltern am See, Weather by CustomWeather, © 2014

Note: Actual official high and low records may vary slightly from our data, if they occured in-between our weather recording intervals... More about our weather records

Advertising

Haltern am See weather history for previous 24 hours

 ConditionsComfort  
Time TempWeatherWind HumidityBarometerVisibility
4:00 AM
Sep 2
55 °FFog.1 mph99%30.15 "Hg6 mi
3:00 AM54 °FFog.1 mph97%30.15 "Hg1 mi
2:00 AM57 °FPassing clouds.1 mph95%30.15 "Hg12 mi
1:00 AM58 °FOvercast.2 mph94%30.14 "Hg16 mi
12:00 AM59 °FOvercast.1 mph93%30.15 "Hg16 mi
11:00 PM
Sep 1
60 °FOvercast.2 mph89%30.14 "Hg16 mi
10:00 PM61 °FOvercast.1 mph88%30.14 "Hg19 mi
9:00 PM62 °FOvercast.1 mph85%30.13 "Hg19 mi
8:00 PM63 °FOvercast.1 mph79%30.11 "Hg19 mi
7:00 PM65 °FOvercast.2 mph73%30.11 "Hg16 mi
6:00 PM66 °FOvercast.2 mph70%30.11 "Hg16 mi
5:00 PM65 °FOvercast.3 mph72%30.11 "Hg19 mi
4:00 PM65 °FOvercast.5 mph68%30.11 "Hg16 mi
3:00 PM66 °FOvercast.6 mph67%30.12 "Hg16 mi
2:00 PM66 °FPartly sunny.5 mph66%30.12 "Hg19 mi
1:00 PM64 °FScattered clouds.6 mph72%30.12 "Hg16 mi
12:00 PM63 °FPartly sunny.5 mph81%30.12 "Hg12 mi
11:00 AM60 °FPartly sunny.3 mph88%30.12 "Hg7 mi
10:00 AM58 °FScattered clouds.3 mph95%30.11 "Hg6 mi
9:00 AM55 °FLow clouds.2 mph99%30.10 "Hg47 mi
8:00 AM52 °FFog.1 mph100%30.10 "Hg3 mi
7:00 AM52 °FFog.2 mph100%30.09 "Hg2 mi
6:00 AM51 °FFog.1 mph100%30.09 "Hg1 mi
5:00 AM49 °FFog.1 mph99%30.08 "Hg1 mi
Weather by CustomWeather, © 2014

See weather overviewHow to use our weather pages